Simultaneous Nadir Overpasses (SNOs) Predictions

Prediction of SNOs between AQUA and GOES-15 Satellite Orbit:

Table of predicted SNOs for the next 14.0 days since TLE Epoch: 10/20/2017
Index Date Time (AQUA) AQUA Lat,Lon GOES-15 Lat,Lon Distance(km) Time Diff (sec)
1 10/22/2017 10:25:34 -0.35,-132.61 0.17,-135.17 290.47 80
2 10/22/2017 22:46:58 -0.75,-137.80 -0.15,-135.08 309.89 80
3 10/24/2017 22:34:47 -0.13,-134.84 -0.15,-135.02 19.71 80
4 10/26/2017 22:22:37 0.49,-131.89 -0.15,-134.96 348.66 80
5 10/27/2017 10:43:52 0.56,-137.05 0.13,-135.01 231.69 80
6 10/29/2017 10:31:41 -0.07,-134.10 0.13,-134.94 96.50 80
7 10/31/2017 10:19:29 -0.63,-131.13 0.13,-134.86 424.20 80
8 10/31/2017 22:40:54 -0.45,-136.32 -0.11,-134.76 177.72 80
9 11/02/2017 22:28:43 0.19,-133.37 -0.12,-134.68 149.42 80
10 11/03/2017 10:49:58 0.93,-138.52 0.10,-134.74 430.50 80




NCC Satellite Simultaneous Nadir Overpasses (SNOs) Prediction Service
